Time,TemperatureF,DewpointF,PressureIn,WindDirection,WindDirectionDegrees,WindSpeedMPH,WindSpeedGustMPH,Humidity,HourlyPrecipIn,Conditions,Clouds,dailyrainin,SoftwareType,DateUTC
2013-08-22 00:10:00,66.7,64.0,29.96,ESE,112,0.0,-999.0,91,-99.99,,,0.00,Acu-Link.com,2013-08-22 04:10:00,
2013-08-22 00:25:00,66.2,63.8,29.96,ESE,112,0.0,-999.0,92,-99.99,,,0.00,Acu-Link.com,2013-08-22 04:25:00,
2013-08-22 00:40:00,66.6,64.2,29.96,SSE,157,0.0,-999.0,92,-99.99,,,0.00,Acu-Link.com,2013-08-22 04:40:00,
2013-08-22 00:55:00,66.9,63.9,29.95,SSE,157,0.0,-999.0,90,-99.99,,,0.00,Acu-Link.com,2013-08-22 04:55:00,
2013-08-22 01:10:00,66.7,64.0,29.96,SSE,157,0.0,-999.0,91,-99.99,,,0.00,Acu-Link.com,2013-08-22 05:10:00,
2013-08-22 01:25:00,66.9,63.9,29.96,NNW,337,0.0,-999.0,90,-99.99,,,0.00,Acu-Link.com,2013-08-22 05:25:00,
2013-08-22 01:40:00,66.4,63.7,29.96,West,270,2.7,-999.0,91,-99.99,,,0.00,Acu-Link.com,2013-08-22 05:40:00,
2013-08-22 01:55:00,65.3,63.5,29.96,West,270,1.7,-999.0,94,-99.99,,,0.00,Acu-Link.com,2013-08-22 05:55:00,
2013-08-22 02:11:00,64.8,63.6,29.96,ENE,67,0.0,-999.0,96,-99.99,,,0.00,Acu-Link.com,2013-08-22 06:11:00,
2013-08-22 02:26:00,64.6,63.4,29.96,SW,225,1.7,-999.0,96,-99.99,,,0.00,Acu-Link.com,2013-08-22 06:26:00,
2013-08-22 02:41:00,64.9,63.4,29.96,WSW,247,2.2,-999.0,95,-99.99,,,0.00,Acu-Link.com,2013-08-22 06:41:00,
2013-08-22 02:56:00,65.1,63.3,29.96,SSW,202,0.0,-999.0,94,-99.99,,,0.00,Acu-Link.com,2013-08-22 06:56:00,
2013-08-22 03:11:00,64.4,63.2,29.95,ENE,67,2.2,-999.0,96,-99.99,,,0.00,Acu-Link.com,2013-08-22 07:11:00,
2013-08-22 03:26:00,64.8,63.3,29.94,SSW,202,0.0,-999.0,95,-99.99,,,0.00,Acu-Link.com,2013-08-22 07:26:00,
2013-08-22 03:41:00,64.4,62.9,29.94,ESE,112,2.2,-999.0,95,-99.99,,,0.00,Acu-Link.com,2013-08-22 07:41:00,
2013-08-22 03:56:00,64.4,62.6,29.93,WNW,292,1.7,-999.0,94,-99.99,,,0.00,Acu-Link.com,2013-08-22 07:56:00,
2013-08-22 04:12:00,64.2,62.7,29.93,East,90,2.2,-999.0,95,-99.99,,,0.00,Acu-Link.com,2013-08-22 08:12:00,
2013-08-22 04:27:00,64.2,62.7,29.92,West,270,0.0,-999.0,95,-99.99,,,0.00,Acu-Link.com,2013-08-22 08:27:00,
2013-08-22 04:42:00,63.7,62.5,29.92,North,0,0.0,-999.0,96,-99.99,,,0.00,Acu-Link.com,2013-08-22 08:42:00,
2013-08-22 04:58:00,63.1,62.5,29.91,WNW,292,1.7,-999.0,98,-99.99,,,0.00,Acu-Link.com,2013-08-22 08:58:00,
2013-08-22 05:13:00,63.1,62.5,29.91,North,0,0.0,-999.0,98,-99.99,,,0.00,Acu-Link.com,2013-08-22 09:13:00,
2013-08-22 05:28:00,62.6,62.3,29.91,NE,45,0.0,-999.0,99,-99.99,,,0.00,Acu-Link.com,2013-08-22 09:28:00,
2013-08-22 05:43:00,62.2,61.9,29.90,ENE,67,2.2,-999.0,99,-99.99,,,0.00,Acu-Link.com,2013-08-22 09:43:00,
2013-08-22 05:58:00,62.1,61.8,29.91,ENE,67,1.7,-999.0,99,-99.99,,,0.00,Acu-Link.com,2013-08-22 09:58:00,
2013-08-22 06:13:00,61.9,61.6,29.91,NE,45,0.0,-999.0,99,-99.99,,,0.00,Acu-Link.com,2013-08-22 10:13:00,
2013-08-22 06:28:00,62.2,61.9,29.91,West,270,1.7,-999.0,99,-99.99,,,0.00,Acu-Link.com,2013-08-22 10:28:00,
2013-08-22 06:43:00,62.8,62.5,29.91,East,90,2.2,-999.0,99,-99.99,,,0.00,Acu-Link.com,2013-08-22 10:43:00,
2013-08-22 08:33:00,74.7,66.6,29.92,SSE,157,1.7,-999.0,76,-99.99,,,0.00,Acu-Link.com,2013-08-22 12:33:00,
2013-08-22 08:48:00,80.1,69.4,29.92,South,180,2.2,-999.0,70,-99.99,,,0.00,Acu-Link.com,2013-08-22 12:48:00,
2013-08-22 09:03:00,82.8,69.8,29.91,ESE,112,1.7,-999.0,65,-99.99,,,0.00,Acu-Link.com,2013-08-22 13:03:00,
2013-08-22 09:19:00,83.7,69.7,29.90,ESE,112,0.0,-999.0,63,-99.99,,,0.00,Acu-Link.com,2013-08-22 13:19:00,
2013-08-22 09:34:00,78.8,69.0,29.91,SSW,202,1.7,-999.0,72,-99.99,,,0.00,Acu-Link.com,2013-08-22 13:34:00,
2013-08-22 09:49:00,79.9,70.0,29.91,West,270,2.7,-999.0,72,-99.99,,,0.00,Acu-Link.com,2013-08-22 13:49:00,
2013-08-22 10:04:00,79.5,71.6,29.91,SSW,202,1.7,-999.0,77,-99.99,,,0.00,Acu-Link.com,2013-08-22 14:04:00,
2013-08-22 10:19:00,81.1,70.4,29.91,SW,225,1.7,-999.0,70,-99.99,,,0.00,Acu-Link.com,2013-08-22 14:19:00,
2013-08-22 10:34:00,81.9,70.7,29.90,West,270,3.2,-999.0,69,-99.99,,,0.00,Acu-Link.com,2013-08-22 14:34:00,
2013-08-22 10:49:00,82.9,70.3,29.89,SW,225,3.7,-999.0,66,-99.99,,,0.00,Acu-Link.com,2013-08-22 14:49:00,
2013-08-22 11:04:00,83.3,72.5,29.88,West,270,2.2,-999.0,70,-99.99,,,0.00,Acu-Link.com,2013-08-22 15:04:00,
2013-08-22 11:19:00,84.4,72.7,29.89,SW,225,4.7,-999.0,68,-99.99,,,0.00,Acu-Link.com,2013-08-22 15:19:00,
2013-08-22 11:35:00,84.6,72.8,29.89,SW,225,7.3,-999.0,68,-99.99,,,0.00,Acu-Link.com,2013-08-22 15:35:00,
2013-08-22 11:50:00,84.7,72.5,29.88,WSW,247,4.2,-999.0,67,-99.99,,,0.00,Acu-Link.com,2013-08-22 15:50:00,
2013-08-22 12:05:00,85.6,72.5,29.88,SW,225,4.7,-999.0,65,-99.99,,,0.00,Acu-Link.com,2013-08-22 16:05:00,
2013-08-22 12:20:00,85.5,72.4,29.87,SW,225,4.2,-999.0,65,-99.99,,,0.00,Acu-Link.com,2013-08-22 16:20:00,
2013-08-22 12:35:00,84.7,71.1,29.87,West,270,7.8,-999.0,64,-99.99,,,0.00,Acu-Link.com,2013-08-22 16:35:00,
2013-08-22 12:50:00,85.6,71.1,29.86,West,270,5.8,-999.0,62,-99.99,,,0.00,Acu-Link.com,2013-08-22 16:50:00,
2013-08-22 13:05:00,85.8,71.2,29.86,West,270,2.2,-999.0,62,-99.99,,,0.00,Acu-Link.com,2013-08-22 17:05:00,
2013-08-22 13:20:00,86.7,72.1,29.85,SSW,202,3.7,-999.0,62,-99.99,,,0.00,Acu-Link.com,2013-08-22 17:20:00,
2013-08-22 13:35:00,86.4,73.2,29.84,SSW,202,3.7,-999.0,65,-99.99,,,0.00,Acu-Link.com,2013-08-22 17:35:00,
2013-08-22 13:51:00,86.4,72.8,29.84,West,270,3.2,-999.0,64,-99.99,,,0.00,Acu-Link.com,2013-08-22 17:51:00,
2013-08-22 14:06:00,86.4,72.3,29.83,West,270,5.8,-999.0,63,-99.99,,,0.00,Acu-Link.com,2013-08-22 18:06:00,
2013-08-22 14:21:00,86.7,72.1,29.82,SW,225,5.8,-999.0,62,-99.99,,,0.00,Acu-Link.com,2013-08-22 18:21:00,
2013-08-22 14:36:00,86.5,71.4,29.81,SW,225,3.7,-999.0,61,-99.99,,,0.00,Acu-Link.com,2013-08-22 18:36:00,
2013-08-22 14:51:00,86.9,70.8,29.80,SSW,202,5.3,-999.0,59,-99.99,,,0.00,Acu-Link.com,2013-08-22 18:51:00,
2013-08-22 15:06:00,86.5,70.9,29.79,West,270,4.2,-999.0,60,-99.99,,,0.00,Acu-Link.com,2013-08-22 19:06:00,
2013-08-22 15:22:00,84.6,71.1,29.80,WSW,247,4.7,-999.0,64,-99.99,,,0.00,Acu-Link.com,2013-08-22 19:22:00,
2013-08-22 15:37:00,81.3,67.0,29.82,SW,225,17.1,-999.0,62,-99.99,,,0.00,Acu-Link.com,2013-08-22 19:37:00,
2013-08-22 15:52:00,73.2,68.8,29.84,West,270,3.7,-999.0,86,-99.99,,,0.01,Acu-Link.com,2013-08-22 19:52:00,
2013-08-22 16:07:00,70.7,67.6,29.85,WSW,247,4.7,-999.0,90,-99.99,,,0.01,Acu-Link.com,2013-08-22 20:07:00,
2013-08-22 16:22:00,71.2,69.1,29.84,West,270,1.7,-999.0,93,-99.99,,,0.03,Acu-Link.com,2013-08-22 20:22:00,
2013-08-22 16:37:00,72.0,70.5,29.84,West,270,2.7,-999.0,95,-99.99,,,0.04,Acu-Link.com,2013-08-22 20:37:00,
2013-08-22 16:52:00,74.3,71.8,29.82,SW,225,2.7,-999.0,92,-99.99,,,0.04,Acu-Link.com,2013-08-22 20:52:00,
2013-08-22 17:07:00,76.3,72.5,29.82,West,270,4.7,-999.0,88,-99.99,,,0.04,Acu-Link.com,2013-08-22 21:07:00,
2013-08-22 17:22:00,76.6,72.4,29.82,West,270,3.2,-999.0,87,-99.99,,,0.04,Acu-Link.com,2013-08-22 21:22:00,
2013-08-22 17:38:00,76.5,71.6,29.82,West,270,6.8,-999.0,85,-99.99,,,0.04,Acu-Link.com,2013-08-22 21:38:00,
2013-08-22 17:53:00,76.6,71.0,29.82,WSW,247,5.3,-999.0,83,-99.99,,,0.04,Acu-Link.com,2013-08-22 21:53:00,
2013-08-22 18:08:00,76.3,71.1,29.82,West,270,3.7,-999.0,84,-99.99,,,0.04,Acu-Link.com,2013-08-22 22:08:00,
2013-08-22 18:23:00,76.3,71.8,29.82,West,270,3.2,-999.0,86,-99.99,,,0.04,Acu-Link.com,2013-08-22 22:23:00,
2013-08-22 18:38:00,76.3,71.8,29.82,West,270,4.2,-999.0,86,-99.99,,,0.04,Acu-Link.com,2013-08-22 22:38:00,
2013-08-22 18:53:00,76.3,72.1,29.83,WSW,247,3.7,-999.0,87,-99.99,,,0.04,Acu-Link.com,2013-08-22 22:53:00,
2013-08-22 19:08:00,75.6,72.1,29.83,West,270,1.7,-999.0,89,-99.99,,,0.04,Acu-Link.com,2013-08-22 23:08:00,
2013-08-22 19:23:00,74.5,71.4,29.84,West,270,2.2,-999.0,90,-99.99,,,0.04,Acu-Link.com,2013-08-22 23:23:00,
2013-08-22 19:38:00,73.6,71.4,29.84,WSW,247,1.7,-999.0,93,-99.99,,,0.04,Acu-Link.com,2013-08-22 23:38:00,
2013-08-22 19:54:00,72.9,71.1,29.84,West,270,2.7,-999.0,94,-99.99,,,0.04,Acu-Link.com,2013-08-22 23:54:00,
2013-08-22 20:09:00,72.1,71.2,29.84,West,270,1.7,-999.0,97,-99.99,,,0.04,Acu-Link.com,2013-08-23 00:09:00,
2013-08-22 20:24:00,72.0,71.1,29.85,NNW,337,3.2,-999.0,97,-99.99,,,0.04,Acu-Link.com,2013-08-23 00:24:00,
2013-08-22 20:39:00,72.0,70.2,29.86,West,270,1.7,-999.0,94,-99.99,,,0.04,Acu-Link.com,2013-08-23 00:39:00,
2013-08-22 20:54:00,71.4,69.6,29.86,West,270,2.2,-999.0,94,-99.99,,,0.04,Acu-Link.com,2013-08-23 00:54:00,
2013-08-22 21:09:00,70.9,69.1,29.86,WSW,247,2.7,-999.0,94,-99.99,,,0.04,Acu-Link.com,2013-08-23 01:09:00,
2013-08-22 21:24:00,70.3,68.8,29.87,WSW,247,2.2,-999.0,95,-99.99,,,0.04,Acu-Link.com,2013-08-23 01:24:00,
2013-08-22 21:39:00,69.8,68.6,29.87,WSW,247,2.7,-999.0,96,-99.99,,,0.04,Acu-Link.com,2013-08-23 01:39:00,
2013-08-22 21:54:00,69.4,68.5,29.87,West,270,2.7,-999.0,97,-99.99,,,0.04,Acu-Link.com,2013-08-23 01:54:00,
2013-08-22 22:10:00,68.9,68.3,29.87,SW,225,3.2,-999.0,98,-99.99,,,0.04,Acu-Link.com,2013-08-23 02:10:00,
2013-08-22 22:25:00,68.5,67.9,29.87,West,270,2.7,-999.0,98,-99.99,,,0.04,Acu-Link.com,2013-08-23 02:25:00,
2013-08-22 22:40:00,68.2,67.6,29.87,SW,225,3.7,-999.0,98,-99.99,,,0.04,Acu-Link.com,2013-08-23 02:40:00,
2013-08-22 22:55:00,68.0,67.1,29.88,SW,225,3.7,-999.0,97,-99.99,,,0.04,Acu-Link.com,2013-08-23 02:55:00,
2013-08-22 23:10:00,67.6,66.7,29.88,WSW,247,3.7,-999.0,97,-99.99,,,0.04,Acu-Link.com,2013-08-23 03:10:00,
2013-08-22 23:25:00,67.3,66.1,29.88,WSW,247,3.7,-999.0,96,-99.99,,,0.04,Acu-Link.com,2013-08-23 03:25:00,
2013-08-22 23:40:00,66.9,65.4,29.89,SW,225,3.7,-999.0,95,-99.99,,,0.04,Acu-Link.com,2013-08-23 03:40:00,
2013-08-22 23:55:00,66.7,64.9,29.89,West,270,3.2,-999.0,94,-99.99,,,0.04,Acu-Link.com,2013-08-23 03:55:00,